Flag for Kazakhstan Weather past 2 weeks in Astana, Kazakhstan

27 °F


Feels Like: 20 °F
Forecast: 32 / 66 °F
Wind: 6 mph from Southwest

Location: Astana

Current Time: Oct 7, 2015 at 6:26:11 AM

Latest Report: Oct 7, 2015 at 6:00 AM

Visibility: 10 mi

Pressure: 30.12 "Hg

Humidity: 69%

Dew point: 18 °F

Location of AstanaLocation

Historic Weather in Astana — Graph


Astana temperature yesterday

Maximum temperature yesterday: 52 °F (at 1:30 PM)
Minimum temperature yesterday: 23 °F (at 1:30 AM)
Average temperature yesterday: 36 °F

Past Weeks' High & Low Weather Summary

High73 °F (Sep 30, 4:00 PM)100% (Sep 25, 7:30 AM)30.63 "Hg (Sep 25, 7:30 AM)
Low21 °F (Sep 28, 6:00 AM)13% (Oct 2, 2:00 PM)29.18 "Hg (Oct 4, 4:30 AM)
Average44 °F56%30.15 "Hg
* Reported Sep 22 5:00 AM — Oct 7 5:00 AM, Astana, Weather by CustomWeather, © 2015

Note: Actual official high and low records may vary slightly from our data, if they occured in-between our weather recording intervals... More about our weather records


Astana weather history for previous 24 hours

Time TempWeatherWind HumidityBarometerVisibility
5:00 AM
Wed, Oct 7
30 °FPassing clouds.6 mph59%30.12 "HgN/A
4:30 AM30 °FClear.6 mph75%30.12 "Hg10 mi
4:00 AM28 °FClear.3 mph64%30.12 "Hg10 mi
3:30 AM27 °FClear.6 mph64%30.12 "Hg10 mi
3:00 AM27 °FClear.6 mph64%30.12 "Hg10 mi
2:30 AM27 °FClear.6 mph64%30.15 "Hg10 mi
2:00 AM28 °FClear.6 mph59%30.15 "Hg10 mi
1:30 AM30 °FClear.8 mph59%30.15 "Hg10 mi
1:00 AM30 °FClear.8 mph69%30.15 "Hg10 mi
12:30 AM28 °FClear.3 mph69%30.15 "Hg10 mi
12:00 AM30 °FClear.6 mph59%30.15 "Hg10 mi
11:30 PM
Tue, Oct 6
30 °FClear.8 mph64%30.15 "Hg10 mi
11:00 PM32 °FClear.3 mph55%30.15 "Hg10 mi
10:30 PM32 °FClear.3 mph55%30.18 "Hg10 mi
10:00 PM32 °FClear.3 mph55%30.18 "Hg10 mi
9:30 PM32 °FClear.6 mph55%30.18 "Hg10 mi
9:00 PM34 °FClear.8 mph51%30.18 "Hg10 mi
8:30 PM37 °FClear.8 mph48%30.18 "Hg10 mi
8:00 PM36 °FClear.8 mph52%30.18 "Hg10 mi
7:30 PM37 °FSunny.6 mph48%30.21 "Hg10 mi
7:00 PM41 °FSunny.8 mph42%30.21 "Hg10 mi
6:30 PM45 °FSunny.6 mph34%30.21 "Hg10 mi
6:00 PM46 °FSunny.8 mph29%30.21 "Hg10 mi
5:30 PM48 °FSunny.13 mph29%30.21 "Hg10 mi
5:00 PM52 °FSunny.17 mph24%30.24 "Hg10 mi
4:30 PM52 °FSunny.17 mph26%30.24 "Hg10 mi
4:00 PM52 °FSunny.15 mph26%30.24 "Hg10 mi
3:30 PM50 °FSunny.17 mph28%30.27 "Hg10 mi
3:00 PM50 °FPassing clouds.20 mph30%30.27 "HgN/A
2:30 PM50 °FSunny.20 mph28%30.27 "Hg10 mi
2:00 PM50 °FSunny.20 mph28%30.30 "Hg10 mi
1:30 PM52 °FSunny.20 mph28%30.30 "Hg10 mi
1:00 PM50 °FSunny.20 mph30%30.30 "Hg10 mi
12:30 PM50 °FSunny.20 mph32%30.33 "Hg10 mi
12:00 PM48 °FSunny.20 mph34%30.33 "Hg10 mi
11:30 AM45 °FSunny.17 mph42%30.33 "Hg10 mi
11:00 AM45 °FSunny.15 mph46%30.36 "Hg10 mi
10:30 AM41 °FSunny.13 mph53%30.36 "Hg10 mi
10:00 AM39 °FSunny.13 mph56%30.36 "Hg10 mi
9:30 AM36 °FSunny.10 mph65%30.36 "Hg10 mi
9:00 AM30 °FSunny.8 mph80%30.36 "Hg10 mi
8:30 AM28 °FSunny.8 mph80%30.36 "Hg10 mi
8:00 AM25 °FClear.8 mph86%30.36 "Hg10 mi
7:30 AM25 °FClear.8 mph80%30.36 "Hg10 mi
7:00 AM25 °FClear.8 mph86%30.36 "Hg10 mi
6:30 AM25 °FClear.8 mph86%30.36 "Hg10 mi
6:00 AM25 °FClear.8 mph86%30.36 "Hg10 mi
Weather by CustomWeather, © 2015

See weather overviewHow to use our weather pages